Previsão horária em Aberystwyth

Hoje, 17 Janeiro, Domingo

Tempo Temperatura Precipitação Vento Pressão Humidade
00:00 +2°C° 0 mm 8 m/s 757 mmHg 89%
01:00 +2°C° 0.3 mm 8 m/s 757 mmHg 88%
02:00 +2°C° 0.3 mm 8 m/s 757 mmHg 87%
03:00 +2°C° 0.3 mm 8 m/s 757 mmHg 87%
04:00 +3°C° 0.1 mm 7 m/s 758 mmHg 87%
05:00 +2°C° 0.1 mm 7 m/s 758 mmHg 87%
06:00 +2°C° 0.1 mm 6 m/s 758 mmHg 88%
07:00 +2°C° 0 mm 6 m/s 759 mmHg 89%
08:00 +2°C° 0 mm 6 m/s 759 mmHg 90%
09:00 +2°C° 0 mm 6 m/s 760 mmHg 90%
10:00 +3°C° 0 mm 5 m/s 760 mmHg 88%
11:00 +5°C° 0 mm 5 m/s 761 mmHg 87%
12:00 +5°C° 0 mm 5 m/s 761 mmHg 85%
13:00 +5°C° 0 mm 5 m/s 761 mmHg 85%
14:00 +5°C° 0 mm 5 m/s 761 mmHg 86%
15:00 +5°C° 0 mm 4 m/s 760 mmHg 86%
16:00 +4°C° 0 mm 4 m/s 761 mmHg 88%
17:00 +4°C° 0 mm 4 m/s 761 mmHg 90%
18:00 +4°C° 0 mm 4 m/s 761 mmHg 92%
19:00 +4°C° 0.1 mm 4 m/s 761 mmHg 93%
20:00 +4°C° 0.1 mm 4 m/s 760 mmHg 93%
21:00 +4°C° 0.1 mm 4 m/s 760 mmHg 94%
22:00 +4°C° 0.1 mm 4 m/s 760 mmHg 94%
23:00 +4°C° 0.1 mm 4 m/s 760 mmHg 93%

Amanhã, 18 Janeiro, Segunda-feira

Tempo Temperatura Precipitação Vento Pressão Humidade
00:00 +4°C° 0.1 mm 4 m/s 760 mmHg 93%
01:00 +3°C° 0.1 mm 5 m/s 759 mmHg 93%
02:00 +3°C° 0.1 mm 5 m/s 759 mmHg 92%
03:00 +3°C° 0.1 mm 6 m/s 758 mmHg 92%
04:00 +3°C° 0.1 mm 6 m/s 758 mmHg 91%
05:00 +3°C° 0.1 mm 6 m/s 758 mmHg 90%
06:00 +3°C° 0.1 mm 6 m/s 757 mmHg 90%
07:00 +3°C° 0 mm 5 m/s 757 mmHg 90%
08:00 +3°C° 0 mm 5 m/s 757 mmHg 90%
09:00 +4°C° 0 mm 4 m/s 756 mmHg 89%
10:00 +3°C° 0 mm 5 m/s 756 mmHg 88%
11:00 +5°C° 0 mm 5 m/s 756 mmHg 87%
12:00 +5°C° 0 mm 5 m/s 755 mmHg 86%
13:00 +5°C° 0.1 mm 5 m/s 754 mmHg 89%
14:00 +5°C° 0.1 mm 4 m/s 753 mmHg 92%
15:00 +5°C° 0.1 mm 4 m/s 752 mmHg 96%
16:00 +5°C° 0.1 mm 3 m/s 751 mmHg 96%
17:00 +5°C° 0.1 mm 3 m/s 751 mmHg 96%
18:00 +6°C° 0.1 mm 2 m/s 750 mmHg 97%
19:00 +6°C° 0 mm 2 m/s 749 mmHg 97%
20:00 +7°C° 0 mm 3 m/s 749 mmHg 98%
21:00 +7°C° 0 mm 3 m/s 748 mmHg 98%
22:00 +8°C° 1 mm 3 m/s 747 mmHg 98%
23:00 +8°C° 1 mm 3 m/s 746 mmHg 98%

Depois de amanhã, 19 Janeiro, Terça-feira

Tempo Temperatura Precipitação Vento Pressão Humidade
00:00 +8°C° 1 mm 3 m/s 745 mmHg 98%
01:00 +8°C° 2.6 mm 6 m/s 745 mmHg 98%
02:00 +7°C° 2.6 mm 9 m/s 744 mmHg 97%
03:00 +8°C° 2.6 mm 12 m/s 743 mmHg 97%
04:00 +8°C° 1.5 mm 12 m/s 742 mmHg 96%
05:00 +8°C° 1.5 mm 12 m/s 742 mmHg 96%
06:00 +8°C° 1.5 mm 13 m/s 741 mmHg 95%
07:00 +8°C° 1.8 mm 12 m/s 741 mmHg 96%
08:00 +8°C° 1.8 mm 12 m/s 740 mmHg 96%
09:00 +7°C° 1.8 mm 12 m/s 740 mmHg 96%
10:00 +8°C° 0.9 mm 12 m/s 739 mmHg 96%
11:00 +8°C° 0.9 mm 11 m/s 739 mmHg 96%
12:00 +8°C° 0.9 mm 11 m/s 738 mmHg 96%
13:00 +8°C° 0.5 mm 11 m/s 737 mmHg 96%
14:00 +8°C° 0.5 mm 10 m/s 737 mmHg 95%
15:00 +8°C° 0.5 mm 10 m/s 736 mmHg 95%
16:00 +8°C° 0.3 mm 10 m/s 735 mmHg 95%
17:00 +8°C° 0.3 mm 9 m/s 735 mmHg 95%
18:00 +8°C° 0.3 mm 9 m/s 734 mmHg 96%
19:00 +8°C° 1.5 mm 10 m/s 733 mmHg 96%
20:00 +8°C° 1.5 mm 10 m/s 733 mmHg 95%
21:00 +8°C° 1.5 mm 11 m/s 732 mmHg 95%
22:00 +8°C° 0.7 mm 11 m/s 732 mmHg 95%
23:00 +8°C° 0.7 mm 11 m/s 732 mmHg 95%

20 Janeiro, Quarta-feira

Tempo Temperatura Precipitação Vento Pressão Humidade
00:00 +8°C° 0.7 mm 10 m/s 732 mmHg 95%
01:00 +8°C° 0.4 mm 10 m/s 731 mmHg 95%
02:00 +8°C° 0.4 mm 10 m/s 731 mmHg 95%
03:00 +8°C° 0.4 mm 9 m/s 730 mmHg 96%
04:00 +8°C° 1.4 mm 9 m/s 730 mmHg 96%
05:00 +9°C° 1.4 mm 8 m/s 730 mmHg 96%
06:00 +9°C° 1.4 mm 7 m/s 730 mmHg 97%
07:00 +9°C° 2.2 mm 6 m/s 729 mmHg 97%
08:00 +9°C° 2.2 mm 5 m/s 729 mmHg 97%
09:00 +8°C° 2.2 mm 4 m/s 728 mmHg 98%
10:00 +8°C° 2.8 mm 4 m/s 728 mmHg 97%
11:00 +8°C° 2.8 mm 4 m/s 727 mmHg 97%
12:00 +8°C° 2.8 mm 4 m/s 726 mmHg 97%
13:00 +9°C° 1.6 mm 5 m/s 726 mmHg 96%
14:00 +9°C° 1.6 mm 7 m/s 725 mmHg 94%
15:00 +9°C° 1.6 mm 8 m/s 724 mmHg 93%
16:00 +8°C° 2.7 mm 7 m/s 724 mmHg 94%
17:00 +6°C° 2.7 mm 7 m/s 723 mmHg 96%
18:00 +5°C° 2.7 mm 7 m/s 723 mmHg 97%
19:00 +4°C° 2.3 mm 8 m/s 722 mmHg 97%
20:00 +1°C° 2.3 mm 8 m/s 722 mmHg 97%
21:00 -1°C° 2.3 mm 9 m/s 721 mmHg 97%
22:00 -1°C° 0.4 mm 9 m/s 722 mmHg 96%
23:00 -2°C° 0.4 mm 10 m/s 722 mmHg 95%

21 Janeiro, Quinta-feira

Tempo Temperatura Precipitação Vento Pressão Humidade
00:00 -2°C° 0.4 mm 10 m/s 723 mmHg 94%
01:00 -1°C° 0.4 mm 11 m/s 724 mmHg 90%
02:00 -1°C° 0.4 mm 11 m/s 725 mmHg 87%
03:00 -1°C° 0.4 mm 11 m/s 725 mmHg 84%
04:00 -1°C° 0.1 mm 11 m/s 726 mmHg 84%
05:00 -1°C° 0.1 mm 11 m/s 726 mmHg 84%
06:00 -1°C° 0.1 mm 11 m/s 726 mmHg 85%
07:00 -1°C° 0.1 mm 11 m/s 727 mmHg 84%
08:00 -1°C° 0.1 mm 11 m/s 727 mmHg 83%
09:00 -1°C° 0.1 mm 11 m/s 728 mmHg 82%
10:00 +1°C° 0.2 mm 11 m/s 728 mmHg 83%
11:00 +1°C° 0.2 mm 11 m/s 729 mmHg 83%
12:00 +1°C° 0.2 mm 11 m/s 730 mmHg 83%
13:00 +1°C° 0.1 mm 10 m/s 730 mmHg 83%
14:00 +1°C° 0.1 mm 9 m/s 730 mmHg 83%
15:00 +1°C° 0.1 mm 8 m/s 730 mmHg 83%
16:00 +1°C° 0.1 mm 8 m/s 731 mmHg 84%
17:00 +2°C° 0.1 mm 7 m/s 731 mmHg 86%
18:00 +2°C° 0.1 mm 6 m/s 731 mmHg 87%
19:00 +2°C° 0.1 mm 6 m/s 732 mmHg 88%
20:00 +1°C° 0.1 mm 6 m/s 732 mmHg 89%
21:00 +1°C° 0.1 mm 5 m/s 733 mmHg 90%
22:00 +1°C° 0 mm 6 m/s 733 mmHg 89%
23:00 +1°C° 0 mm 6 m/s 733 mmHg 89%

22 Janeiro, Sexta-feira

Tempo Temperatura Precipitação Vento Pressão Humidade
00:00 +1°C° 0 mm 6 m/s 733 mmHg 88%
01:00 +1°C° 0 mm 6 m/s 733 mmHg 88%
02:00 +1°C° 0 mm 6 m/s 733 mmHg 88%
03:00 +1°C° 0 mm 6 m/s 733 mmHg 88%
04:00 +1°C° 0.1 mm 6 m/s 734 mmHg 88%
05:00 +1°C° 0.1 mm 6 m/s 734 mmHg 88%
06:00 -1°C° 0.1 mm 6 m/s 734 mmHg 88%
07:00 -1°C° 0.1 mm 6 m/s 734 mmHg 87%
08:00 +1°C° 0.1 mm 6 m/s 734 mmHg 87%
09:00 0°C° 0.1 mm 7 m/s 735 mmHg 86%
10:00 0°C° 0.2 mm 7 m/s 735 mmHg 84%
11:00 +2°C° 0.2 mm 7 m/s 735 mmHg 81%
12:00 +2°C° 0.2 mm 8 m/s 736 mmHg 79%
13:00 +1°C° 0.1 mm 8 m/s 736 mmHg 79%
14:00 +2°C° 0.1 mm 7 m/s 736 mmHg 79%
15:00 +2°C° 0.1 mm 7 m/s 736 mmHg 79%
16:00 +2°C° 0.2 mm 7 m/s 737 mmHg 80%
17:00 0°C° 0.2 mm 7 m/s 737 mmHg 82%
18:00 0°C° 0.2 mm 7 m/s 738 mmHg 84%
19:00 0°C° 0.3 mm 7 m/s 738 mmHg 84%
20:00 0°C° 0.3 mm 7 m/s 739 mmHg 84%
21:00 0°C° 0.3 mm 7 m/s 740 mmHg 84%
22:00 0°C° 0.1 mm 7 m/s 740 mmHg 84%
23:00 -1°C° 0.1 mm 7 m/s 741 mmHg 85%
Mostrar mais